BCS915 EDDP-EDDF

Flight info

Callsign BCS915
Flight time N/A
Altitude 22000
Route ORTAG5E/08R ORTAG T177 ODIPI/N0431F210 T157 KERAX KERAX5A
Aircraft B77L/H-SDE1E2E3FGHIJ2J3J4J5M1RWXY/LB1D1

Departure

Time 2026-05-06 18:30
Airport Leipzig/Halle Airport (EDDP)

Arrival

Time N/A
Airport Frankfurt Main Airport (EDDF)
Time Latitude Longitude Altitude Speed Heading
2026-05-06 17:48 51.40840 12.23387 442 ft 0 kts 86°
2026-05-06 18:21 51.40839 12.23378 426 ft 4 kts 84°
2026-05-06 18:21 51.40834 12.23339 432 ft 4 kts 61°
2026-05-06 18:21 51.40820 12.23311 426 ft 4 kts 26°
2026-05-06 18:21 51.40798 12.23302 426 ft 2 kts 356°
2026-05-06 18:22 51.40796 12.23302 426 ft 0 kts 355°
2026-05-06 18:24 51.40814 12.23299 430 ft 5 kts 354°
2026-05-06 18:25 51.40877 12.23289 433 ft 7 kts 358°
2026-05-06 18:25 51.40930 12.23284 427 ft 8 kts 358°
2026-05-06 18:25 51.41003 12.23280 431 ft 13 kts
2026-05-06 18:25 51.41090 12.23268 433 ft 13 kts 329°
2026-05-06 18:26 51.41115 12.23134 438 ft 13 kts 268°
2026-05-06 18:26 51.41108 12.22987 442 ft 13 kts 266°
2026-05-06 18:26 51.41100 12.22839 431 ft 13 kts 265°
2026-05-06 18:26 51.41094 12.22691 434 ft 14 kts 266°
2026-05-06 18:27 51.41074 12.22410 429 ft 33 kts 273°
2026-05-06 18:27 51.41066 12.22085 439 ft 24 kts 264°
2026-05-06 18:27 51.41054 12.21821 442 ft 24 kts 266°
2026-05-06 18:27 51.41042 12.21555 437 ft 24 kts 266°
2026-05-06 18:28 51.41033 12.21324 431 ft 20 kts 263°
2026-05-06 18:28 51.41019 12.21108 442 ft 20 kts 265°
2026-05-06 18:28 51.41010 12.20891 442 ft 20 kts 265°
2026-05-06 18:28 51.41005 12.20734 431 ft 2 kts 282°
2026-05-06 18:29 51.41014 12.20695 434 ft 11 kts 300°
2026-05-06 18:29 51.41066 12.20686 434 ft 8 kts 15°
2026-05-06 18:29 51.41155 12.20802 434 ft 21 kts 52°
2026-05-06 18:29 51.41187 12.21048 431 ft 36 kts 85°
2026-05-06 18:30 51.41236 12.22050 438 ft 145 kts 85°
2026-05-06 18:30 51.41350 12.24069 906 ft 197 kts 83°
2026-05-06 18:30 51.41444 12.26293 2148 ft 203 kts 85°
2026-05-06 18:30 51.41548 12.28659 2640 ft 227 kts 86°
2026-05-06 18:31 51.41689 12.31334 2989 ft 251 kts 85°
2026-05-06 18:31 51.41834 12.34206 3612 ft 264 kts 85°
2026-05-06 18:31 51.41988 12.37146 4352 ft 271 kts 81°
2026-05-06 18:31 51.42628 12.40025 5046 ft 280 kts 53°
2026-05-06 18:32 51.44079 12.42043 5916 ft 279 kts 21°
2026-05-06 18:32 51.45964 12.42541 6733 ft 276 kts 352°
2026-05-06 18:32 51.47858 12.41970 7426 ft 280 kts 343°
2026-05-06 18:32 51.49764 12.41164 8186 ft 285 kts 342°
2026-05-06 18:33 51.51684 12.40324 9020 ft 288 kts 342°
2026-05-06 18:33 51.53633 12.39477 9796 ft 293 kts 342°
2026-05-06 18:33 51.55565 12.38395 10332 ft 297 kts 326°
2026-05-06 18:33 51.57031 12.36091 10940 ft 299 kts 298°
2026-05-06 18:34 51.57838 12.33054 11642 ft 300 kts 286°
2026-05-06 18:34 51.58505 12.29840 12501 ft 305 kts 286°
2026-05-06 18:34 51.59185 12.26595 13470 ft 307 kts 286°
2026-05-06 18:34 51.59880 12.23313 14303 ft 311 kts 286°
2026-05-06 18:35 51.60728 12.20108 14994 ft 318 kts 301°
2026-05-06 18:35 51.62276 12.17505 15671 ft 330 kts 322°
2026-05-06 18:35 51.64222 12.15528 16557 ft 332 kts 325°
2026-05-06 18:35 51.66206 12.13571 17378 ft 336 kts 325°
2026-05-06 18:36 51.68194 12.11562 18141 ft 337 kts 321°
2026-05-06 18:36 51.69822 12.08877 18656 ft 336 kts 297°
2026-05-06 18:36 51.70637 12.05366 18791 ft 342 kts 275°
2026-05-06 18:36 51.70659 12.01437 18814 ft 361 kts 264°
2026-05-06 18:37 51.70446 11.97253 18812 ft 388 kts 263°
2026-05-06 18:37 51.70192 11.92890 18801 ft 402 kts 262°
2026-05-06 18:37 51.69935 11.88383 18796 ft 404 kts 263°
2026-05-06 18:37 51.69691 11.83844 19279 ft 408 kts 263°
2026-05-06 18:38 51.69421 11.79281 20107 ft 409 kts 260°
2026-05-06 18:38 51.68821 11.74810 20882 ft 410 kts 252°
2026-05-06 18:38 51.67864 11.70465 21600 ft 413 kts 246°
2026-05-06 18:38 51.66624 11.66232 21782 ft 420 kts 242°
2026-05-06 18:39 51.65276 11.62079 21796 ft 417 kts 241°
2026-05-06 18:39 51.63921 11.57964 21789 ft 415 kts 241°
2026-05-06 18:39 51.62568 11.53858 21794 ft 415 kts 241°
2026-05-06 18:40 51.59873 11.45627 21796 ft 416 kts 241°
2026-05-06 18:40 51.58530 11.41506 21794 ft 417 kts 241°
2026-05-06 18:40 51.57184 11.37371 21797 ft 417 kts 241°
2026-05-06 18:40 51.55838 11.33237 21796 ft 417 kts 241°
2026-05-06 18:41 51.54490 11.29101 21793 ft 418 kts 241°
2026-05-06 18:41 51.53144 11.24974 21792 ft 418 kts 241°
2026-05-06 18:41 51.51793 11.20844 21792 ft 418 kts 241°
2026-05-06 18:41 51.50459 11.16771 21793 ft 417 kts 241°
2026-05-06 18:42 51.49107 11.12649 21793 ft 417 kts 241°
2026-05-06 18:42 51.47754 11.08534 21788 ft 417 kts 241°
2026-05-06 18:42 51.46391 11.04397 21791 ft 417 kts 241°
2026-05-06 18:42 51.45043 11.00310 21790 ft 416 kts 241°
2026-05-06 18:43 51.43690 10.96212 21789 ft 416 kts 241°
2026-05-06 18:43 51.42333 10.92115 21790 ft 415 kts 241°
2026-05-06 18:43 51.40973 10.88022 21789 ft 415 kts 240°
2026-05-06 18:43 51.39619 10.83965 21781 ft 408 kts 240°
2026-05-06 18:44 51.38313 10.80047 21770 ft 396 kts 240°
2026-05-06 18:44 51.37024 10.76192 21794 ft 390 kts 239°
2026-05-06 18:44 51.35546 10.72583 21802 ft 388 kts 231°
2026-05-06 18:44 51.33769 10.69318 21795 ft 389 kts 226°
2026-05-06 18:45 51.31788 10.66364 21788 ft 390 kts 220°
2026-05-06 18:45 51.29693 10.63598 21795 ft 390 kts 219°
2026-05-06 18:45 51.27574 10.60857 21796 ft 391 kts 219°
2026-05-06 18:45 51.26173 10.59050 21795 ft 391 kts 219°
2026-05-06 18:46 51.23365 10.55423 21795 ft 392 kts 218°
2026-05-06 18:46 51.21243 10.52686 21789 ft 392 kts 218°
2026-05-06 18:46 51.19118 10.49952 21785 ft 392 kts 217°
2026-05-06 18:46 51.17003 10.47217 21790 ft 392 kts 219°
2026-05-06 18:47 51.14894 10.44457 21792 ft 392 kts 219°
2026-05-06 18:47 51.12788 10.41701 21790 ft 392 kts 219°
2026-05-06 18:47 51.10681 10.38950 21787 ft 392 kts 219°
2026-05-06 18:47 51.08568 10.36200 21791 ft 392 kts 219°
2026-05-06 18:48 51.06446 10.33444 21574 ft 394 kts 219°
2026-05-06 18:48 51.04319 10.30691 21295 ft 393 kts 218°
2026-05-06 18:48 51.02196 10.27952 21028 ft 390 kts 219°
2026-05-06 18:48 51.00130 10.25281 20778 ft 387 kts 219°
2026-05-06 18:49 50.98047 10.22590 20515 ft 385 kts 219°
2026-05-06 18:49 50.95971 10.19909 20237 ft 384 kts 219°
2026-05-06 18:49 50.93898 10.17236 19919 ft 384 kts 219°
2026-05-06 18:49 50.91818 10.14555 19597 ft 384 kts 219°
2026-05-06 18:50 50.89740 10.11875 19269 ft 384 kts 219°
2026-05-06 18:50 50.87659 10.09197 18967 ft 384 kts 219°
2026-05-06 18:50 50.85587 10.06535 18651 ft 383 kts 219°
2026-05-06 18:50 50.83544 10.03916 18359 ft 382 kts 219°
2026-05-06 18:51 50.81507 10.01308 18019 ft 370 kts 219°
2026-05-06 18:51 50.79514 9.98760 17682 ft 372 kts 219°
2026-05-06 18:51 50.77482 9.96161 17345 ft 378 kts 219°
2026-05-06 18:51 50.75437 9.93562 16996 ft 376 kts 218°
2026-05-06 18:52 50.73398 9.90995 16643 ft 373 kts 218°
2026-05-06 18:52 50.71409 9.88473 16219 ft 360 kts 219°
2026-05-06 18:52 50.69462 9.85990 15807 ft 360 kts 219°
2026-05-06 18:52 50.67506 9.83494 15414 ft 363 kts 219°
2026-05-06 18:53 50.65534 9.80983 14979 ft 363 kts 219°
2026-05-06 18:53 50.63572 9.78502 14524 ft 360 kts 219°
2026-05-06 18:53 50.61626 9.76041 14089 ft 358 kts 218°
2026-05-06 18:53 50.59686 9.73593 13615 ft 356 kts 218°
2026-05-06 18:54 50.57752 9.71153 13090 ft 355 kts 219°
2026-05-06 18:54 50.55854 9.68751 12587 ft 353 kts 218°
2026-05-06 18:54 50.53902 9.66298 12658 ft 365 kts 218°
2026-05-06 18:54 50.51893 9.63778 12717 ft 373 kts 218°
2026-05-06 18:55 50.49856 9.61221 12633 ft 372 kts 219°
2026-05-06 18:55 50.47867 9.58708 12659 ft 360 kts 219°
2026-05-06 18:55 50.45949 9.56271 12664 ft 350 kts 219°
2026-05-06 18:55 50.44065 9.53871 12653 ft 347 kts 219°
2026-05-06 18:56 50.42240 9.51475 12656 ft 346 kts 223°
2026-05-06 18:56 50.40552 9.48759 12476 ft 350 kts 227°
2026-05-06 18:56 50.38928 9.45929 11956 ft 344 kts 228°
2026-05-06 18:56 50.37370 9.43162 11435 ft 332 kts 228°
2026-05-06 18:57 50.35871 9.40491 10923 ft 319 kts 228°
2026-05-06 18:57 50.34426 9.37917 10423 ft 310 kts 228°
2026-05-06 18:57 50.33016 9.35403 9935 ft 305 kts 228°
2026-05-06 18:57 50.31642 9.32951 9440 ft 300 kts 229°
2026-05-06 18:58 50.30293 9.30547 8906 ft 288 kts 229°
2026-05-06 18:58 50.28993 9.28244 8361 ft 277 kts 229°
2026-05-06 18:58 50.27733 9.26030 7840 ft 268 kts 229°
2026-05-06 18:58 50.26506 9.23888 7332 ft 262 kts 228°
2026-05-06 18:59 50.25287 9.21773 6824 ft 259 kts 229°
2026-05-06 18:59 50.24078 9.19693 6370 ft 258 kts 229°
2026-05-06 18:59 50.23266 9.18301 6013 ft 257 kts 229°
2026-05-06 18:59 50.21678 9.15589 5340 ft 255 kts 229°
2026-05-06 19:00 50.20868 9.14210 5133 ft 257 kts 228°
2026-05-06 19:00 50.19660 9.12151 5026 ft 260 kts 228°
2026-05-06 19:00 50.18447 9.10082 4995 ft 256 kts 228°
2026-05-06 19:00 50.17246 9.08031 5018 ft 256 kts 228°
2026-05-06 19:01 50.16040 9.05973 5022 ft 258 kts 228°
2026-05-06 19:01 50.14980 9.04166 5020 ft 258 kts 228°
2026-05-06 19:01 50.13728 9.02028 5045 ft 282 kts 228°
2026-05-06 19:01 50.12415 8.99782 4997 ft 276 kts 229°
2026-05-06 19:02 50.11320 8.97464 4993 ft 258 kts 247°
2026-05-06 19:02 50.11035 8.94890 4990 ft 227 kts 275°
2026-05-06 19:02 50.11318 8.92624 4992 ft 203 kts 282°
2026-05-06 19:02 50.11677 8.90563 5057 ft 190 kts 283°
2026-05-06 19:03 50.12028 8.88637 5048 ft 179 kts 283°
2026-05-06 19:03 50.12367 8.86820 5015 ft 172 kts 283°
2026-05-06 19:03 50.12705 8.85021 5026 ft 172 kts 282°
2026-05-06 19:03 50.12706 8.83201 5010 ft 170 kts 250°
2026-05-06 19:04 50.12273 8.81495 5030 ft 173 kts 248°
2026-05-06 19:04 50.11835 8.79730 5033 ft 175 kts 249°
2026-05-06 19:04 50.11382 8.77967 5033 ft 175 kts 244°